This demonstration page uses our WeatherBlox Daily Observations layout. Learn more.

Left ArrowRight Arrow

Hourly Observations for July 3, 2022

Temp ( °F °C ) Dew Point ( °F °C ) Humidity (%) Winds ( mph kmh ) Pressure ( in mb ) Visibility ( mi km ) Precip ( " mm )
12:53 am 00:53 Clear 77 25 72 22.2 85 85 WSW 3 6 30.01 1016 10 16 0.00 0.00
1:53 am 01:53 Clear 78 25.6 73 22.8 85 85 WSW 3 6 30.00 1016 10 16 0.00 0.00
2:53 am 02:53 Clear 76 24.4 72 22.2 88 88 SSW 6 9 30.00 1016 10 16 0.00 0.00
3:53 am 03:53 Clear 75 23.9 72 22.2 90 90 Calm 30.00 1016 10 16 0.00 0.00
4:53 am 04:53 Clear 75 23.9 72 22.2 90 90 S 3 6 30.00 1016 10 16 0.00 0.00
5:53 am 05:53 Clear 74 23.3 71 21.7 91 91 W 3 6 30.02 1017 10 16 0.00 0.00
6:53 am 06:53 Mostly Sunny 75 23.9 71 21.7 88 88 SSW 3 6 30.04 1017 10 16 0.00 0.00
7:53 am 07:53 Sunny 77 25 72 22.2 85 85 Calm 30.06 1018 10 16 0.00 0.00
8:53 am 08:53 Sunny 80 26.7 72 22.2 76 76 Calm 30.07 1018 10 16 0.00 0.00
9:53 am 09:53 Mostly Sunny 82 27.8 72 22.2 72 72 SW 3 6 30.08 1019 10 16 0.00 0.00
10:53 am 10:53 Mostly Cloudy 85 29.4 73 22.8 68 68 NNW 5 7 30.08 1019 10 16 0.00 0.00
11:53 am 11:53 Mostly Cloudy 86 30 72 22.2 63 63 WSW 3 6 30.07 1018 10 16 0.00 0.00
12:53 pm 12:53 Mostly Sunny 89 31.7 71 21.7 55 55 VRB 7 11 30.05 1018 10 16 0.00 0.00
1:53 pm 13:53 Mostly Sunny 90 32.2 69 20.6 50 50 Calm 30.03 1017 10 16 0.00 0.00
2:53 pm 14:53 Mostly Sunny 92 33.3 70 21.1 49 49 VRB 3 6 30.00 1016 10 16 0.00 0.00
3:53 pm 15:53 Partly Cloudy with Nearby Thunderstorms 90 32.2 69 20.6 50 50 NW 7 11 29.99 1016 10 16 0.00 0.00
4:13 pm 16:13 Cloudy with Thunderstorms 83 28.3 72 22.2 70 70 WNW 15 24 30.00 1016 10 16 0.00 0.00
4:53 pm 16:53 Cloudy with Nearby Thunderstorms 79 26.1 74 23.3 85 85 NNW 5 7 30.03 1017 10 16 0.09 2.29
5:20 pm 17:20 Mostly Cloudy 81 27.2 75 23.9 82 82 SW 5 7 30.02 1016 10 16 0.00 0.00
5:53 pm 17:53 Partly Cloudy 82 27.8 75 23.9 79 79 Calm 30.03 1017 10 16 0.00 0.00
6:53 pm 18:53 Mostly Cloudy 84 28.9 73 22.8 70 70 Calm 30.03 1017 10 16 0.00 0.00
7:53 pm 19:53 Mostly Sunny 84 28.9 73 22.8 70 70 Calm 30.04 1017 10 16 0.00 0.00
8:53 pm 20:53 Cloudy 83 28.3 75 23.9 77 77 SSW 3 6 30.06 1018 10 16 0.00 0.00
9:53 pm 21:53 Cloudy with Nearby Thunderstorms 82 27.8 75 23.9 79 79 ESE 7 11 30.07 1018 10 16 0.00 0.00
10:15 pm 22:15 Cloudy with Thunderstorms 80 26.7 73 22.8 79 79 ESE 7 11 30.07 1018 10 16 0.00 0.00
10:30 pm 22:30 Mostly Cloudy with Nearby Thunderstorms 79 26.1 73 22.8 82 82 S 5 7 30.07 1018 10 16 0.00 0.00
10:44 pm 22:44 Mostly Clear with Thunderstorms 79 26.1 73 22.8 82 82 SSW 8 13 30.08 1019 10 16 0.00 0.00
10:53 pm 22:53 Clear with Thunderstorms 78 25.6 73 22.8 85 85 SW 7 11 30.08 1019 10 16 0.00 0.00
11:22 pm 23:22 Clear 78 25.6 69 20.6 74 74 Calm 30.06 1018 10 16 0.00 0.00
11:53 pm 23:53 Clear 77 25 70 21.1 79 79 Calm 30.05 1018 10 16 0.00 0.00

Powered by AerisWeather